SWA3233 KMDW-KBNA

Flight info

Callsign SWA3233
Flight time 0h 56m
Altitude 35000
Route CMSKY CARYN CYBIL TONES RYYMN3
Aircraft B38M/M-SDE1FGHILORVWXY/HB1

Departure

Time 2026-05-05 18:27
Airport Chicago Midway International Airport (KMDW)

Arrival

Time 2026-05-05 19:24
Airport Nashville International Airport (KBNA)
Time Latitude Longitude Altitude Speed Heading
2026-05-05 18:09 41.78589 -87.74572 631 ft 0 kts
2026-05-05 18:19 41.78584 -87.74573 636 ft 4 kts
2026-05-05 18:19 41.78558 -87.74569 636 ft 4 kts 330°
2026-05-05 18:20 41.78545 -87.74548 631 ft 4 kts 266°
2026-05-05 18:20 41.78551 -87.74531 631 ft 1 kts 223°
2026-05-05 18:20 41.78553 -87.74528 631 ft 0 kts 223°
2026-05-05 18:23 41.78553 -87.74529 631 ft 1 kts 223°
2026-05-05 18:23 41.78528 -87.74561 635 ft 9 kts 223°
2026-05-05 18:23 41.78522 -87.74569 631 ft 0 kts 223°
2026-05-05 18:24 41.78507 -87.74586 631 ft 7 kts 215°
2026-05-05 18:24 41.78448 -87.74552 639 ft 13 kts 143°
2026-05-05 18:24 41.78374 -87.74457 634 ft 16 kts 133°
2026-05-05 18:24 41.78284 -87.74372 639 ft 16 kts 171°
2026-05-05 18:25 41.78195 -87.74318 635 ft 13 kts 162°
2026-05-05 18:25 41.78136 -87.74308 631 ft 13 kts 177°
2026-05-05 18:25 41.78036 -87.74303 639 ft 2 kts 178°
2026-05-05 18:25 41.78032 -87.74303 631 ft 0 kts 178°
2026-05-05 18:26 41.78031 -87.74303 631 ft 1 kts 178°
2026-05-05 18:26 41.78005 -87.74307 631 ft 9 kts 195°
2026-05-05 18:26 41.77957 -87.74403 635 ft 18 kts 289°
2026-05-05 18:26 41.78109 -87.74633 631 ft 62 kts 313°
2026-05-05 18:27 41.78548 -87.75249 631 ft 118 kts 314°
2026-05-05 18:27 41.79224 -87.76196 663 ft 157 kts 314°
2026-05-05 18:27 41.79952 -87.77238 1220 ft 153 kts 311°
2026-05-05 18:27 41.80451 -87.78639 1353 ft 179 kts 270°
2026-05-05 18:28 41.79450 -87.81207 2832 ft 161 kts 224°
2026-05-05 18:28 41.78398 -87.81915 3039 ft 181 kts 191°
2026-05-05 18:28 41.77099 -87.81896 3198 ft 193 kts 184°
2026-05-05 18:29 41.75717 -87.82069 3388 ft 208 kts 191°
2026-05-05 18:29 41.74227 -87.82339 3486 ft 225 kts 190°
2026-05-05 18:29 41.72608 -87.82634 3513 ft 241 kts 191°
2026-05-05 18:29 41.70898 -87.82933 3616 ft 256 kts 190°
2026-05-05 18:30 41.69089 -87.83239 3699 ft 265 kts 190°
2026-05-05 18:30 41.67243 -87.83544 3817 ft 270 kts 189°
2026-05-05 18:30 41.65372 -87.83853 4323 ft 269 kts 189°
2026-05-05 18:30 41.63517 -87.84153 5244 ft 269 kts 190°
2026-05-05 18:31 41.61644 -87.84457 6027 ft 271 kts 191°
2026-05-05 18:31 41.59795 -87.84759 6857 ft 273 kts 191°
2026-05-05 18:31 41.57874 -87.85064 7657 ft 275 kts 191°
2026-05-05 18:31 41.55996 -87.85368 8446 ft 277 kts 191°
2026-05-05 18:32 41.54069 -87.85682 9209 ft 280 kts 191°
2026-05-05 18:32 41.52129 -87.85995 9962 ft 282 kts 192°
2026-05-05 18:32 41.50158 -87.86315 10512 ft 294 kts 193°
2026-05-05 18:32 41.48075 -87.86658 10783 ft 312 kts 193°
2026-05-05 18:33 41.45871 -87.87000 11176 ft 324 kts 192°
2026-05-05 18:33 41.43597 -87.87361 11658 ft 334 kts 192°
2026-05-05 18:33 41.41290 -87.87697 12404 ft 336 kts 191°
2026-05-05 18:33 41.38945 -87.87911 13109 ft 338 kts 191°
2026-05-05 18:34 41.36583 -87.88132 13766 ft 342 kts 190°
2026-05-05 18:34 41.34205 -87.88361 14474 ft 345 kts 191°
2026-05-05 18:34 41.31806 -87.88592 15191 ft 347 kts 190°
2026-05-05 18:34 41.29382 -87.88827 15885 ft 351 kts 191°
2026-05-05 18:35 41.26936 -87.89064 16539 ft 354 kts 191°
2026-05-05 18:35 41.24451 -87.89202 17166 ft 362 kts 184°
2026-05-05 18:35 41.21930 -87.89080 17817 ft 364 kts 185°
2026-05-05 18:35 41.19383 -87.88979 18399 ft 367 kts 185°
2026-05-05 18:36 41.16852 -87.88893 18986 ft 370 kts 185°
2026-05-05 18:36 41.14263 -87.88813 19529 ft 374 kts 185°
2026-05-05 18:36 41.11650 -87.88735 20058 ft 377 kts 185°
2026-05-05 18:36 41.09012 -87.88658 20575 ft 381 kts 185°
2026-05-05 18:37 41.06355 -87.88581 21093 ft 384 kts 185°
2026-05-05 18:37 41.03662 -87.88503 21580 ft 388 kts 185°
2026-05-05 18:37 41.00953 -87.88425 22057 ft 391 kts 186°
2026-05-05 18:37 40.98222 -87.88345 22534 ft 394 kts 185°
2026-05-05 18:38 40.95467 -87.88266 23002 ft 397 kts 185°
2026-05-05 18:38 40.92693 -87.88189 23385 ft 402 kts 185°
2026-05-05 18:38 40.89899 -87.88105 23899 ft 402 kts 185°
2026-05-05 18:38 40.87083 -87.88026 24262 ft 407 kts 185°
2026-05-05 18:39 40.84251 -87.87944 24710 ft 409 kts 185°
2026-05-05 18:39 40.81392 -87.87863 25122 ft 412 kts 185°
2026-05-05 18:39 40.79483 -87.87808 25395 ft 414 kts 185°
2026-05-05 18:39 40.75664 -87.87699 25945 ft 416 kts 185°
2026-05-05 18:40 40.73703 -87.87642 26191 ft 418 kts 185°
2026-05-05 18:40 40.69828 -87.87535 26673 ft 422 kts 186°
2026-05-05 18:40 40.66887 -87.87452 27049 ft 424 kts 185°
2026-05-05 18:40 40.64890 -87.87392 27283 ft 426 kts 185°
2026-05-05 18:41 40.61919 -87.87306 27628 ft 428 kts 186°
2026-05-05 18:41 40.58934 -87.87221 27953 ft 431 kts 186°
2026-05-05 18:41 40.55927 -87.87135 28296 ft 433 kts 186°
2026-05-05 18:41 40.52947 -87.87050 28596 ft 435 kts 186°
2026-05-05 18:42 40.49912 -87.86964 28940 ft 437 kts 186°
2026-05-05 18:42 40.46866 -87.86877 29237 ft 439 kts 186°
2026-05-05 18:42 40.43800 -87.86791 29522 ft 442 kts 186°
2026-05-05 18:42 40.40715 -87.86703 29814 ft 444 kts 186°
2026-05-05 18:43 40.37618 -87.86615 30095 ft 447 kts 186°
2026-05-05 18:43 40.34497 -87.86527 30383 ft 449 kts 186°
2026-05-05 18:43 40.31363 -87.86353 30605 ft 458 kts 181°
2026-05-05 18:43 40.28191 -87.85745 30879 ft 462 kts 180°
2026-05-05 18:44 40.24998 -87.85125 31106 ft 465 kts 180°
2026-05-05 18:44 40.21792 -87.84494 31366 ft 467 kts 180°
2026-05-05 18:44 40.18565 -87.83860 31642 ft 469 kts 180°
2026-05-05 18:44 40.15334 -87.83224 31919 ft 470 kts 180°
2026-05-05 18:45 40.12099 -87.82589 32183 ft 471 kts 181°
2026-05-05 18:45 40.08841 -87.81948 32446 ft 473 kts 181°
2026-05-05 18:45 40.05584 -87.81308 32701 ft 474 kts 181°
2026-05-05 18:45 40.02318 -87.80667 32943 ft 476 kts 181°
2026-05-05 18:46 39.99030 -87.80024 33163 ft 478 kts 182°
2026-05-05 18:46 39.95739 -87.79379 33425 ft 479 kts 182°
2026-05-05 18:46 39.92434 -87.78733 33627 ft 480 kts 182°
2026-05-05 18:46 39.89127 -87.78086 33875 ft 481 kts 182°
2026-05-05 18:47 39.85811 -87.77440 34124 ft 482 kts 182°
2026-05-05 18:47 39.82530 -87.76800 34343 ft 483 kts 183°
2026-05-05 18:47 39.79207 -87.76152 34602 ft 483 kts 182°
2026-05-05 18:47 39.75870 -87.75503 34811 ft 485 kts 183°
2026-05-05 18:48 39.69189 -87.74204 34894 ft 484 kts 182°
2026-05-05 18:48 39.62524 -87.72913 34900 ft 485 kts 182°
2026-05-05 18:49 39.55858 -87.71622 34891 ft 484 kts 182°
2026-05-05 18:49 39.49200 -87.70336 34893 ft 482 kts 182°
2026-05-05 18:50 39.42568 -87.69057 34894 ft 482 kts 182°
2026-05-05 18:50 39.35929 -87.67780 34887 ft 482 kts 182°
2026-05-05 18:51 39.29325 -87.66512 34885 ft 482 kts 182°
2026-05-05 18:51 39.22685 -87.65239 34878 ft 483 kts 182°
2026-05-05 18:52 39.16018 -87.63964 34868 ft 483 kts 182°
2026-05-05 18:52 39.09364 -87.62693 34870 ft 484 kts 182°
2026-05-05 18:53 39.02707 -87.61424 34868 ft 484 kts 182°
2026-05-05 18:53 38.96046 -87.60157 34871 ft 484 kts 182°
2026-05-05 18:54 38.89384 -87.58892 34869 ft 484 kts 182°
2026-05-05 18:54 38.82703 -87.57626 34870 ft 485 kts 182°
2026-05-05 18:55 38.76014 -87.56361 34868 ft 485 kts 182°
2026-05-05 18:55 38.69328 -87.55099 34871 ft 485 kts 182°
2026-05-05 18:56 38.62687 -87.53848 34871 ft 487 kts 182°
2026-05-05 18:56 38.55965 -87.52583 34870 ft 487 kts 182°
2026-05-05 18:57 38.49263 -87.51326 34868 ft 487 kts 182°
2026-05-05 18:57 38.42539 -87.50065 34871 ft 488 kts 182°
2026-05-05 18:58 38.35869 -87.48818 34874 ft 487 kts 182°
2026-05-05 18:58 38.29138 -87.47561 34884 ft 489 kts 182°
2026-05-05 18:59 38.22402 -87.46307 34876 ft 489 kts 182°
2026-05-05 18:59 38.15655 -87.45052 34879 ft 489 kts 182°
2026-05-05 19:00 38.08910 -87.43800 34880 ft 489 kts 182°
2026-05-05 19:00 38.02169 -87.42550 34887 ft 489 kts 182°
2026-05-05 19:01 37.98810 -87.41561 34854 ft 506 kts 168°
2026-05-05 19:01 37.95547 -87.39829 34887 ft 512 kts 166°
2026-05-05 19:01 37.88947 -87.36331 34887 ft 515 kts 166°
2026-05-05 19:02 37.82344 -87.32783 34887 ft 516 kts 166°
2026-05-05 19:02 37.75743 -87.29238 34893 ft 515 kts 166°
2026-05-05 19:03 37.69142 -87.25701 34900 ft 515 kts 166°
2026-05-05 19:03 37.62547 -87.22174 34896 ft 515 kts 166°
2026-05-05 19:04 37.55984 -87.18671 34897 ft 516 kts 166°
2026-05-05 19:04 37.49367 -87.15145 34896 ft 516 kts 166°
2026-05-05 19:05 37.42743 -87.11622 34888 ft 516 kts 166°
2026-05-05 19:05 37.39469 -87.09884 34471 ft 509 kts 166°
2026-05-05 19:05 37.36170 -87.08464 33646 ft 490 kts 178°
2026-05-05 19:06 37.32877 -87.08006 32870 ft 464 kts 191°
2026-05-05 19:06 37.29685 -87.08077 32033 ft 457 kts 191°
2026-05-05 19:06 37.26520 -87.08159 31205 ft 452 kts 192°
2026-05-05 19:06 37.23394 -87.08262 30412 ft 447 kts 192°
2026-05-05 19:07 37.20304 -87.08376 29628 ft 442 kts 192°
2026-05-05 19:07 37.17252 -87.08491 28883 ft 436 kts 192°
2026-05-05 19:07 37.14232 -87.08607 28064 ft 432 kts 191°
2026-05-05 19:07 37.11238 -87.08722 27153 ft 430 kts 191°
2026-05-05 19:08 37.08249 -87.08835 26257 ft 428 kts 191°
2026-05-05 19:08 37.05279 -87.08949 25356 ft 425 kts 190°
2026-05-05 19:08 37.02338 -87.09060 24482 ft 421 kts 189°
2026-05-05 19:08 36.99416 -87.09172 23560 ft 422 kts 189°
2026-05-05 19:09 36.96476 -87.09285 22511 ft 433 kts 188°
2026-05-05 19:09 36.93438 -87.09398 21470 ft 441 kts 188°
2026-05-05 19:09 36.90354 -87.09516 20438 ft 446 kts 188°
2026-05-05 19:09 36.87231 -87.09635 19419 ft 447 kts 187°
2026-05-05 19:10 36.84160 -87.09750 18387 ft 438 kts 187°
2026-05-05 19:10 36.81128 -87.09324 17316 ft 442 kts 169°
2026-05-05 19:10 36.78316 -87.07792 16353 ft 440 kts 157°
2026-05-05 19:10 36.75622 -87.06083 15699 ft 425 kts 159°
2026-05-05 19:11 36.73006 -87.04465 15319 ft 416 kts 159°
2026-05-05 19:11 36.70425 -87.02882 14899 ft 409 kts 159°
2026-05-05 19:11 36.67888 -87.01329 14487 ft 402 kts 159°
2026-05-05 19:11 36.65379 -86.99796 13665 ft 407 kts 159°
2026-05-05 19:12 36.62849 -86.98194 13140 ft 403 kts 153°
2026-05-05 19:12 36.60778 -86.95964 12840 ft 393 kts 133°
2026-05-05 19:12 36.59513 -86.92972 12300 ft 392 kts 110°
2026-05-05 19:12 36.58739 -86.89778 11761 ft 379 kts 112°
2026-05-05 19:13 36.57908 -86.86714 11236 ft 367 kts 113°
2026-05-05 19:13 36.57089 -86.83743 10658 ft 359 kts 114°
2026-05-05 19:13 36.56271 -86.80817 9848 ft 357 kts 113°
2026-05-05 19:13 36.55449 -86.77898 9056 ft 356 kts 114°
2026-05-05 19:14 36.54651 -86.74996 8276 ft 354 kts 112°
2026-05-05 19:14 36.53930 -86.72069 7499 ft 352 kts 111°
2026-05-05 19:14 36.53239 -86.69204 7148 ft 336 kts 111°
2026-05-05 19:14 36.52589 -86.66515 7067 ft 313 kts 111°
2026-05-05 19:15 36.51989 -86.64016 7058 ft 290 kts 111°
2026-05-05 19:15 36.51423 -86.61708 7044 ft 267 kts 115°
2026-05-05 19:15 36.50555 -86.59818 6898 ft 242 kts 138°
2026-05-05 19:15 36.49276 -86.58630 6774 ft 221 kts 162°
2026-05-05 19:16 36.47820 -86.58242 6492 ft 212 kts 182°
2026-05-05 19:16 36.46369 -86.58284 6257 ft 207 kts 185°
2026-05-05 19:16 36.44918 -86.58367 5825 ft 208 kts 186°
2026-05-05 19:16 36.43493 -86.58449 5418 ft 208 kts 186°
2026-05-05 19:17 36.42041 -86.58542 5023 ft 209 kts 185°
2026-05-05 19:17 36.40597 -86.58644 4649 ft 208 kts 186°
2026-05-05 19:17 36.39157 -86.58743 4281 ft 206 kts 185°
2026-05-05 19:17 36.37768 -86.58883 4096 ft 195 kts 189°
2026-05-05 19:18 36.36486 -86.59154 4027 ft 179 kts 193°
2026-05-05 19:18 36.35313 -86.59491 3991 ft 168 kts 195°
2026-05-05 19:18 36.34196 -86.59870 3938 ft 166 kts 197°
2026-05-05 19:18 36.33074 -86.60285 3656 ft 172 kts 198°
2026-05-05 19:19 36.31902 -86.60721 3261 ft 178 kts 197°
2026-05-05 19:19 36.30738 -86.61170 3087 ft 172 kts 198°
2026-05-05 19:19 36.29623 -86.61608 3005 ft 166 kts 199°
2026-05-05 19:19 36.28527 -86.62061 3056 ft 167 kts 198°
2026-05-05 19:20 36.27422 -86.62503 3049 ft 167 kts 198°
2026-05-05 19:20 36.26299 -86.62933 2971 ft 169 kts 197°
2026-05-05 19:20 36.25192 -86.63347 2776 ft 163 kts 198°
2026-05-05 19:20 36.24101 -86.63788 2673 ft 168 kts 198°
2026-05-05 19:21 36.22981 -86.64251 2416 ft 175 kts 198°
2026-05-05 19:21 36.21826 -86.64688 2163 ft 169 kts 195°
2026-05-05 19:21 36.20752 -86.65121 2020 ft 156 kts 198°
2026-05-05 19:21 36.19763 -86.65521 1833 ft 145 kts 195°
2026-05-05 19:22 36.18808 -86.65888 1570 ft 146 kts 196°
2026-05-05 19:22 36.17870 -86.66283 1509 ft 137 kts 196°
2026-05-05 19:22 36.16968 -86.66661 1230 ft 143 kts 194°
2026-05-05 19:22 36.15990 -86.67012 1079 ft 145 kts 195°
2026-05-05 19:23 36.15041 -86.67363 846 ft 146 kts 197°
2026-05-05 19:23 36.14049 -86.67760 680 ft 152 kts 196°
2026-05-05 19:23 36.13080 -86.68134 580 ft 133 kts 197°
2026-05-05 19:23 36.12364 -86.68414 573 ft 76 kts 198°
2026-05-05 19:24 36.11976 -86.68566 578 ft 54 kts 197°
2026-05-05 19:24 36.11802 -86.68629 579 ft 19 kts 182°
2026-05-05 19:24 36.11758 -86.68565 580 ft 10 kts 105°
2026-05-05 19:24 36.11738 -86.68474 584 ft 11 kts 95°
2026-05-05 19:25 36.11794 -86.68417 584 ft 15 kts 14°
2026-05-05 19:25 36.11920 -86.68372 581 ft 25 kts 17°
2026-05-05 19:25 36.12132 -86.68298 581 ft 37 kts 16°
2026-05-05 19:25 36.12391 -86.68204 575 ft 40 kts 16°